Location: General Nathan Twining Observatory
(34.5931°N, 106.8201°W)
Time: 15:37:49
(UTC-07:00)

CZ-2D R/B - Pass Details

Date: 20 September 2017
Orbit: 522 x 541 km, 97.5° (Epoch: 12 December)

Event Time Altitude Azimuth Distance (km) Brightness Sun altitude
Exits shadow 20:01:55 18° 115° (ESE) 1,331 4.7 -12.2°
Maximum altitude 20:03:46 26° 72° (ENE) 1,046 4.2 -12.6°
Drops below altitude 10° 20:06:59 10° 15° (NNE) 1,765 5.9 -13.2°
Sets 20:09:19 0° 2° (N) 2,659 6.9 -13.7°
